Weather reports worldwide

Advertisment
Aberdeen/Dyce, United Kingdom (3091): temperature & dewpoint: 13.04.2019 00:00:00 - 19.04.2019 00:00:00 (BST)Aberdeen/Dyce, United Kingdom (3091): temperature -20cm & temperature -100cm: 13.04.2019 00:00:00 - 19.04.2019 00:00:00 (BST)Aberdeen/Dyce, United Kingdom (3091): wind speed & gusts: 13.04.2019 00:00:00 - 19.04.2019 00:00:00 (BST)Aberdeen/Dyce, United Kingdom (3091): wind direction: 13.04.2019 00:00:00 - 19.04.2019 00:00:00 (BST)Aberdeen/Dyce, United Kingdom (3091): reduced air pressure: 13.04.2019 00:00:00 - 19.04.2019 00:00:00 (BST)Aberdeen/Dyce, United Kingdom (3091): visibility: 13.04.2019 00:00:00 - 19.04.2019 00:00:00 (BST)Aberdeen/Dyce, United Kingdom (3091): sunshine duration: 13.04.2019 00:00:00 - 19.04.2019 00:00:00 (BST)Aberdeen/Dyce, United Kingdom (3091): precipitation: 13.04.2019 00:00:00 - 19.04.2019 00:00:00 (BST)
Date & Time tt [°C] td [°C] tt -20cm [°C] tt -100cm [°C] ff [km/h] ff [kn] fx [km/h] fx [kn] dd ppp [hPa] vv [km] sd [min] rr [mm]
19.04.2019 00:00:00 5,6 4,7 - - 9 5 - - SE 1032,5 8 0 0,0
18.04.2019 23:00:00 6,9 5,3 - - 8 4 - - S 1032,4 10 0 0,0
18.04.2019 22:00:00 7,9 6,3 - - 9 5 - - S 1032,0 10 0 0,0
18.04.2019 21:00:00 7,7 5,9 - - 11 6 - - SE 1031,7 10 0 0,0
18.04.2019 20:00:00 8,4 6,3 - - 18 10 - - SSE 1031,1 10 0 0,0
18.04.2019 19:00:00 9,4 7,0 - - 18 10 - - SE 1030,5 10 36 0,0
18.04.2019 18:00:00 9,7 7,2 - - 16 9 - - ESE 1030,5 10 0 0,0
18.04.2019 17:00:00 9,6 7,0 - - 16 9 - - ESE 1030,5 10 30 0,0
18.04.2019 16:00:00 12,0 7,2 - - 18 10 - - SE 1030,3 12 60 0,0
18.04.2019 15:00:00 12,2 7,1 - - 16 9 - - ESE 1030,5 10 60 0,0
18.04.2019 14:00:00 13,0 7,2 - - 15 8 - - SE 1030,4 10 60 0,0
18.04.2019 13:00:00 12,6 7,5 - - 18 10 - - SSE 1030,4 10 60 0,0
18.04.2019 12:00:00 12,4 7,2 - - 16 9 - - SE 1030,4 13 60 0,0
18.04.2019 11:00:00 11,5 6,7 - - 13 7 - - ESE 1030,6 10 60 0,0
18.04.2019 10:00:00 10,3 6,9 7,2 7,2 11 6 - - ESE 1030,6 10 54 0,0
18.04.2019 09:00:00 9,5 6,6 - - 9 5 - - ESE 1030,2 10 48 0,0
18.04.2019 08:00:00 7,1 6,0 - - 5 3 - - - 1030,1 5 0 0,0
18.04.2019 07:00:00 7,2 6,5 - - 9 5 - - S 1029,6 5 0 0,0
18.04.2019 06:00:00 6,8 6,1 - - 11 6 - - SSE 1029,0 4,5 0 0,0
18.04.2019 05:00:00 7,1 6,2 - - 9 5 - - SSE 1028,8 5 0 0,0
18.04.2019 04:00:00 6,9 6,1 - - 11 6 - - SSE 1028,7 5 0 0,0
18.04.2019 03:00:00 6,7 6,0 - - 8 4 - - S 1028,4 5 0 0,0
18.04.2019 02:00:00 6,6 5,7 - - 9 5 - - S 1028,4 6 0 0,0
18.04.2019 01:00:00 6,4 5,6 - - 8 4 - - SSE 1028,3 6 - 0,0
18.04.2019 00:00:00 5,6 4,9 - - 9 5 - - S 1028,2 6 0 0,0
17.04.2019 23:00:00 6,0 4,9 - - 8 4 - - SSW 1027,9 8 0 0,0
17.04.2019 22:00:00 6,0 4,6 - - 8 4 - - S 1027,7 8 0 0,0
17.04.2019 21:00:00 6,3 4,9 - - 11 6 - - SSE 1027,2 10 0 0,0
17.04.2019 20:00:00 6,9 4,7 - - 13 7 - - SSE 1026,7 12 24 0,0
17.04.2019 19:00:00 8,3 5,1 - - 13 7 - - SSE 1026,0 10 60 0,0
17.04.2019 18:00:00 9,2 5,2 - - 15 8 - - ESE 1025,7 10 60 0,0
17.04.2019 17:00:00 9,8 4,9 - - 16 9 - - ESE 1025,6 10 60 0,0
17.04.2019 16:00:00 10,7 4,6 - - 16 9 - - ESE 1025,7 10 60 0,0
17.04.2019 15:00:00 11,3 3,4 - - 18 10 - - SSE 1025,8 19 60 0,0
17.04.2019 14:00:00 10,8 3,2 - - 21 11 - - SE 1026,0 10 60 0,0
17.04.2019 13:00:00 10,8 4,3 - - 21 11 - - SSE 1026,1 21 60 0,0
17.04.2019 12:00:00 9,6 4,6 - - 21 11 - - SSE 1025,9 10 54 0,0
17.04.2019 11:00:00 9,0 4,7 - - 15 8 - - SE 1025,9 10 42 0,0
17.04.2019 10:00:00 8,2 4,3 6,7 7,2 15 8 - - SE 1025,8 10 6 0,0
17.04.2019 09:00:00 6,9 4,3 - - 15 8 - - SE 1025,5 16 0 0,0
17.04.2019 08:00:00 6,3 3,7 - - 11 6 - - SE 1025,0 10 0 0,0
17.04.2019 07:00:00 5,9 3,1 - - 11 6 - - ESE 1024,8 10 0 0,0
17.04.2019 06:00:00 5,4 2,8 - - 9 5 - - ESE 1024,6 10 0 0,0
17.04.2019 05:00:00 5,4 2,7 - - 9 5 - - ESE 1024,4 10 0 0,0
17.04.2019 04:00:00 5,2 2,5 - - 13 7 - - SE 1024,6 10 0 0,0
17.04.2019 03:00:00 5,7 2,4 - - 13 7 - - SE 1024,7 10 0 0,0
17.04.2019 02:00:00 5,8 2,3 - - 15 8 - - SE 1024,9 10 0 0,0
17.04.2019 01:00:00 5,9 2,3 - - 13 7 - - SE 1025,1 10 - 0,0
17.04.2019 00:00:00 5,9 2,1 - - 21 11 - - SE 1025,2 18 0 0,0
16.04.2019 23:00:00 5,9 2,6 - - 21 11 - - SE 1025,2 17 0 0,0
16.04.2019 22:00:00 6,1 2,9 - - 18 10 - - SE 1025,1 10 0 0,0
16.04.2019 21:00:00 6,2 2,5 - - 16 9 - - SE 1024,9 10 0 0,0
16.04.2019 20:00:00 6,5 2,8 - - 24 13 - - SE 1024,4 10 0 0,0
16.04.2019 19:00:00 6,8 2,4 - - 26 14 - - SE 1024,0 10 0 0,0
16.04.2019 18:00:00 7,3 3,7 - - 24 13 - - SE 1023,5 11 0 0,0
16.04.2019 17:00:00 7,3 4,1 - - 24 13 - - SE 1023,4 11 0 0,0
16.04.2019 16:00:00 7,5 4,4 - - 21 11 - - SE 1023,3 10 0 0,0
16.04.2019 15:00:00 7,7 4,6 - - 22 12 - - SE 1023,4 10 0 0,0
16.04.2019 14:00:00 7,6 4,9 - - 21 11 46 25 SE 1023,6 10 0 0,0
16.04.2019 13:00:00 7,5 4,5 - - 21 11 - - SE 1023,2 10 0 0,0
16.04.2019 12:00:00 7,4 4,7 - - 16 9 - - SSE 1023,3 9 0 0,0
16.04.2019 11:00:00 7,4 4,8 - - 22 12 - - SE 1023,2 10 0 0,0
16.04.2019 10:00:00 7,2 5,1 6,7 7,2 22 12 - - SE 1023,0 8 0 0,0
16.04.2019 09:00:00 7,0 5,1 - - 18 10 - - SE 1022,8 8 0 0,0
16.04.2019 08:00:00 7,1 4,9 - - 18 10 - - SE 1022,4 9 0 0,0
16.04.2019 07:00:00 7,2 5,0 - - 18 10 - - SE 1022,0 10 0 0,0
16.04.2019 06:00:00 6,7 4,6 - - 15 8 - - SE 1022,0 9 0 0,0
16.04.2019 05:00:00 6,6 4,4 - - 21 11 - - SE 1021,8 10 0 0,0
16.04.2019 04:00:00 6,5 4,2 - - 21 11 - - SE 1021,9 10 0 0,0
16.04.2019 03:00:00 6,4 3,9 - - 18 10 - - SSE 1022,2 10 0 0,0
16.04.2019 02:00:00 6,5 3,9 - - 18 10 - - SE 1022,3 10 0 0,0
16.04.2019 01:00:00 6,4 3,8 - - 28 15 46 25 SE 1022,5 10 - 0,0
16.04.2019 00:00:00 6,5 3,7 - - 28 15 46 25 SSE 1022,8 10 0 0,0
15.04.2019 23:00:00 6,5 3,9 - - 31 17 52 28 SE 1022,9 10 0 0,0
15.04.2019 22:00:00 6,6 4,1 - - 31 17 50 27 SE 1023,0 10 0 0,0
15.04.2019 21:00:00 6,6 4,4 - - 26 14 - - SE 1022,9 11 0 0,0
15.04.2019 20:00:00 6,7 4,5 - - 29 16 - - SE 1022,5 10 0 0,0
15.04.2019 19:00:00 6,8 4,8 - - 28 15 52 28 SE 1022,5 10 0 0,0
15.04.2019 18:00:00 7,1 4,8 - - 31 17 50 27 SE 1022,7 10 0 0,0
15.04.2019 17:00:00 7,3 5,1 - - 31 17 48 26 SE 1023,1 10 0 0,0
15.04.2019 16:00:00 7,2 5,1 - - 26 14 48 26 SE 1023,6 10 0 0,0
15.04.2019 15:00:00 7,2 4,5 - - 28 15 48 26 SE 1024,3 10 0 0,0
15.04.2019 14:00:00 7,6 4,4 - - 29 16 - - SE 1025,1 15 0 0,0
15.04.2019 13:00:00 7,5 4,1 - - 26 14 48 26 SE 1025,9 10 6 0,0
15.04.2019 12:00:00 7,9 3,5 - - 24 13 46 25 SE 1026,6 16 6 0,0
15.04.2019 11:00:00 7,1 2,6 - - 28 15 - - SE 1027,3 10 6 0,0
15.04.2019 10:00:00 6,4 2,1 6,7 7,2 31 17 - - SSE 1027,7 10 36 0,0
15.04.2019 09:00:00 6,1 2,0 - - 31 17 46 25 SSE 1027,9 10 12 0,0
15.04.2019 08:00:00 5,7 2,2 - - 24 13 - - SSE 1027,8 10 12 0,0
15.04.2019 07:00:00 4,5 1,2 - - 24 13 - - SSE 1027,9 10 0 0,0
15.04.2019 06:00:00 4,0 1,2 - - 24 13 - - SSE 1027,8 10 0 0,2
15.04.2019 05:00:00 4,0 2,5 - - 18 10 - - S 1028,3 5 0 1,0
15.04.2019 04:00:00 5,0 2,8 - - 21 11 - - SE 1028,8 10 0 1,0
15.04.2019 03:00:00 4,1 2,2 - - 26 14 - - SSE 1029,3 3,7 0 0,2
15.04.2019 02:00:00 5,4 -0,3 - - 22 12 - - SE 1029,4 10 0 0,0
15.04.2019 01:00:00 5,1 -0,1 - - 24 13 46 25 SE 1030,0 10 - 0,0
15.04.2019 00:00:00 5,2 0,7 - - 22 12 - - SSE 1029,9 10 0 0,0
14.04.2019 23:00:00 4,7 3,2 - - 9 5 - - ESE 1029,9 10 0 0,0
14.04.2019 22:00:00 6,0 1,7 - - 15 8 - - ESE 1030,0 10 0 0,0
14.04.2019 21:00:00 5,6 0,1 - - 16 9 - - SE 1030,2 50 0 0,0
14.04.2019 20:00:00 5,9 -0,1 - - 24 13 - - SSE 1030,0 10 0 0,0
14.04.2019 19:00:00 6,3 -0,5 - - 24 13 - - SE 1029,8 10 6 0,0
14.04.2019 18:00:00 6,8 0,2 - - 26 14 - - SSE 1029,8 10 12 0,0
14.04.2019 17:00:00 6,8 0,5 - - 31 17 - - SSE 1030,2 10 0 0,0
14.04.2019 16:00:00 7,2 2,3 - - 22 12 - - ESE 1030,5 10 0 0,0
14.04.2019 15:00:00 7,6 1,3 - - 28 15 - - SE 1030,6 10 30 0,0
14.04.2019 14:00:00 8,5 2,3 - - 24 13 - - ESE 1030,7 10 6 0,0
14.04.2019 13:00:00 7,5 1,1 - - 21 11 - - SE 1030,9 35 6 0,0
14.04.2019 12:00:00 6,9 0,6 - - 24 13 - - SE 1031,1 30 0 0,0
14.04.2019 11:00:00 7,0 0,7 - - 22 12 - - SE 1031,3 10 6 0,0
14.04.2019 10:00:00 6,4 0,0 6,7 7,2 21 11 - - SE 1031,3 10 6 0,0
14.04.2019 09:00:00 5,9 -1,0 - - 21 11 - - SE 1031,0 10 6 0,0
14.04.2019 08:00:00 5,3 -1,7 - - 16 9 - - SE 1031,1 40 0 0,0
14.04.2019 07:00:00 5,2 -1,3 - - 21 11 - - SE 1030,6 10 0 0,0
14.04.2019 06:00:00 5,2 -1,4 - - 21 11 - - SE 1030,5 10 0 0,0
14.04.2019 05:00:00 5,2 -1,2 - - 21 11 - - ESE 1030,6 10 0 0,0
14.04.2019 04:00:00 5,0 -1,8 - - 16 9 - - SE 1030,9 10 0 0,0
14.04.2019 03:00:00 4,5 -1,1 - - 16 9 - - SSE 1030,9 45 0 0,0
14.04.2019 02:00:00 4,3 -1,8 - - 16 9 - - SSE 1030,9 50 0 0,0
14.04.2019 01:00:00 4,2 -1,7 - - 16 9 - - SE 1031,1 10 - 0,0
14.04.2019 00:00:00 4,1 -1,5 - - 21 11 - - SSE 1031,0 10 0 0,0
13.04.2019 23:00:00 3,8 -1,3 - - 18 10 - - SSE 1030,9 10 0 0,0
13.04.2019 22:00:00 3,7 -1,0 - - 16 9 - - SSE 1031,1 10 0 0,0
13.04.2019 21:00:00 4,3 -0,1 - - 16 9 - - SSE 1031,1 10 0 0,0
13.04.2019 20:00:00 5,4 0,2 - - 21 11 - - SSE 1030,7 10 0 0,0
13.04.2019 19:00:00 6,0 0,2 - - 22 12 - - SSE 1030,5 10 30 0,0
13.04.2019 18:00:00 6,1 -0,1 - - 21 11 - - SSE 1031,0 50 0 0,0
13.04.2019 17:00:00 6,3 -0,9 - - 24 13 - - SSE 1031,5 10 6 0,0
13.04.2019 16:00:00 6,6 -0,8 - - 24 13 46 25 SE 1031,8 10 6 0,0
13.04.2019 15:00:00 6,5 -1,8 - - 28 15 - - SSE 1032,0 50 42 0,0
13.04.2019 14:00:00 6,8 -1,8 - - 28 15 - - SE 1031,9 10 60 0,0
13.04.2019 13:00:00 7,9 -1,0 - - 29 16 46 25 SE 1031,9 10 54 0,0
13.04.2019 12:00:00 6,8 -2,1 - - 28 15 - - SE 1032,2 10 48 0,0
13.04.2019 11:00:00 6,6 -1,1 - - 24 13 - - SSE 1032,5 35 30 0,0
13.04.2019 10:00:00 5,8 -1,4 6,9 7,2 22 12 - - SE 1032,6 10 0 0,0
13.04.2019 09:00:00 5,1 -1,9 - - 11 6 - - SE 1032,7 10 18 0,0
13.04.2019 08:00:00 5,1 -2,0 - - 21 11 - - SE 1032,4 50 6 0,0
13.04.2019 07:00:00 3,4 -3,2 - - 15 8 - - SE 1032,2 10 6 0,0
13.04.2019 06:00:00 3,5 -3,1 - - 15 8 - - SSE 1032,2 10 0 0,0
13.04.2019 05:00:00 2,8 -2,4 - - 8 4 - - S 1032,4 10 0 0,0
13.04.2019 04:00:00 2,9 -2,9 - - 13 7 - - S 1032,3 10 0 0,0
13.04.2019 03:00:00 3,0 -2,5 - - 16 9 - - SSE 1032,3 10 0 0,0
13.04.2019 02:00:00 3,9 -1,7 - - 16 9 - - SSE 1032,1 10 0 0,0
13.04.2019 01:00:00 3,9 -1,0 - - 15 8 - - SSE 1032,0 10 - 0,0
13.04.2019 00:00:00 3,4 -0,8 - - 15 8 - - SSE 1031,8 10 0 0,0

tt = temperature
td = dewpoint
tt -20cm = temperature -20cm
tt -100cm = temperature -100cm
ff = wind speed
fx = gusts
dd = wind direction
ppp = reduced air pressure
vv = visibility
sd = sunshine duration
rr = precipitation

Next stations